Regional Weather Roundup
Issued by NWS

Home | Current Version | Previous Version | Graphics & Text | Print | Product List | Glossary On
Versions: 1 2 3 4 5 6 7 8 9 10 11 12 13 14 15 16 17 18 19 20 21 22 23 24 25 26 27 28 29 30 31 32 33 34 35 36 37 38 39 40 41 42 43 44 45 46 47 48 49 50
000
ASUS45 KBOU 221507
RWRCO

WEATHER ROUNDUP FOR COLORADO
NATIONAL WEATHER SERVICE DENVER/BOULDER CO
900 AM MDT FRI JUL 22 2016

NOTE: "FAIR" INDICATES FEW OR NO CLOUDS BELOW 12000 FEET WITH NO
SIGNIFICANT WEATHER AND/OR OBSTRUCTIONS TO VISIBILITY.

COZ001>005-013-030-031-221600-
...NORTHWEST COLORADO...

CITY           SKY/WX    TMP DP  RH WIND       PRES   REMARKS
CRAIG          FAIR      70  49  47 E12       30.38R
HAYDEN         FAIR      66  46  48 E13       30.40S
MEEKER         FAIR      66  52  60 CALM      30.39S
MOUNT WERNER   NOT AVBL
STEAMBOAT SPGS FAIR      61  49  65 CALM      30.43S
WALDEN         FAIR      57  46  67 SW3       30.52S
$$

COZ006>008-011-221600-
...WEST CENTRAL VALLEYS...

CITY           SKY/WX    TMP DP  RH WIND       PRES   REMARKS
GRAND JUNCTION FAIR      79  53  40 SE10      30.28R
MONTROSE       FAIR      75  52  44 VRB3      30.38R
EAGLE          SUNNY     61  54  77 CALM      30.47F
RIFLE          FAIR      71  53  52 VRB3      30.36R
DELTA          FAIR      74  55  51 CALM      30.34S HAZE
NUCLA          NOT AVBL
$$

COZ017>023-064>068-221600-
...SOUTHWEST COLORADO...

CITY           SKY/WX    TMP DP  RH WIND       PRES   REMARKS
DURANGO        FAIR      69  52  54 CALM      30.43R
CORTEZ         CLOUDY    71  54  54 CALM      30.38R
PAGOSA SPRINGS FAIR      68  47  45 CALM      30.51R
TELLURIDE      FAIR      61  50  66 CALM      30.62S
WOLF CREEK PAS FAIR      54  41  62 SW8G16    30.84R
$$

COZ009-010-012-014-032>034-037-058>063-221600-
...CENTRAL COLORADO...

CITY           SKY/WX    TMP DP  RH WIND       PRES   REMARKS
ASPEN          FAIR      62  50  64 CALM      30.50S
BUENA VISTA    FAIR      65  49  57 N7        30.51F
COPPER MTN     FAIR      55  43  62 W3        30.81R
BERTHOUD PASS  FAIR      46  34  61 N6G25     30.84R
COTTONWOOD PAS FAIR      63  50  63 E6        30.64S
GUNNISON       FAIR      61  50  67 S5        30.56S
KREMMLING      CLOUDY    55  50  82 CALM      30.53R
LEADVILLE      FAIR      57  48  72 CALM      30.64R
MONARCH PASS   FAIR      52  43  71 SW8       30.91R
SALIDA         FAIR      64  51  63 CALM      30.56S
SUNLIGHT       FAIR      59  48  67 CALM      30.75R
WILKERSON PASS FAIR      55  41  58 NW6       30.77S
$$

COZ069>075-221600-
...SAN LUIS VALLEY/SANGRE DE CRISTO MOUNTAINS...

CITY           SKY/WX    TMP DP  RH WIND       PRES   REMARKS
ALAMOSA        FAIR      67  51  56 VRB3      30.48S
LA VETA PASS   PTSUNNY   59  43  55 SW3       30.67R
SAGUACHE       FAIR      68  50  52 NW8       30.52S
$$

COZ035-036-038>040-221600-
...NORTHERN COLORADO FRONT RANGE...

CITY           SKY/WX    TMP DP  RH WIND       PRES   REMARKS
DENVER INTL AP FAIR      82  50  32 W10       30.24R
DMNS CITY PARK   N/A     82  49  31 S2        30.25R
AURORA         MOSUNNY   80  51  36 SW12      30.27R
FRONT RANGE AP PTSUNNY   84  50  30 W9        30.26R
ERIE MUNI ARPT FAIR      80  45  28 CALM      30.23S
BOULDER MUN AP FAIR      81  46  30 E5        30.24R
CENTENNIAL     FAIR      81  46  29 SW12      30.28R
BROOMFIELD     MOSUNNY   81  46  30 N3        30.27R
LONGMONT       FAIR      82  49  31 S5        30.23S
$$

COZ041-046-047-076>085-087-088-221600-
...PIKES PEAK/PALMER DIVIDE AND SOUTHERN FOOTHILLS...

CITY           SKY/WX    TMP DP  RH WIND       PRES   REMARKS
COLO. SPRINGS  PTSUNNY   78  55  44 CALM      30.33R
A. F. ACADEMY  CLOUDY    76  49  38 W2        30.34S
SCHRIEVER AFB  NOT AVBL
ELLICOTT       LGT SNOW N/A N/A N/A CALM      30.30S
FALCON         NOT AVBL
FORT CARSON    PTSUNNY   77  51  40 N2        30.29R
LIMON          FAIR      80  52  37 CALM      30.26R
MONUMENT HILL  FAIR      72  52  49 W3        30.40S
TRINIDAD       NOT AVBL
$$

COZ042>045-048>051-090-091-221600-
...NORTHEAST COLORADO...

CITY           SKY/WX    TMP DP  RH WIND       PRES   REMARKS
GREELEY ARPT   FAIR      79  57  47 W5        30.21R
AKRON          FAIR      77  58  51 W6        30.20R
BURLINGTON     FAIR      81  54  39 NW6       30.16S
WRAY           FAIR      81  63  54 SW6       30.13R
STERLING       FAIR      73  63  68 CALM      30.14R
HOLYOKE        FAIR      84  70  61 W5        30.12S
FORT MORGAN    FAIR      76  55  47 W7        30.19R
$$

COZ086-089-092>099-221600-
...SOUTHEAST COLORADO...

CITY           SKY/WX    TMP DP  RH WIND       PRES   REMARKS
PUEBLO         FAIR      86  50  28 NW9       30.21S
LA JUNTA       FAIR      84  55  36 W12       30.16S
LAMAR          FAIR      83  57  41 NW12      30.10S
SPRINGFIELD      N/A     88  51  28 W9        30.14S
$$



USA.gov is the U.S. government's official web portal to all federal, state and local government web resources and services.